Vorticity
9 9 17 28 15 9 13 7 7 6 6 7 7 7 7 6 7 7 7 7 8 8
2 3 -2 -1 13 13 3 9 8 5 5 4 5 5 5 6 6 6 6 7 6 8
9 16 15 20 -4 -3 4 12 13 10 6 3 2 3 5 6 6 7 6 6 8 5
4 4 7 10 14 15 9 1 5 1 5 12 -1 2 5 4 4 6 7 6 8 5
11 13 14 20 9 1 4 10 11 12 6 1 1 18 2 -0 5 2 3 6 2 6
13 9 6 2 6 12 11 13 5 14 9 7 6 11 -8 7 34 15 -1 -1 -3 5
8 8 10 17 21 10 13 11 7 7 14 11 22 -1 5 9 -16 33 10 41 46 22
9 15 10 5 11 26 12 10 23 20 6 19 -5 1 11 -23 33 29 10 15 17 46
3 6 9 16 6 7 16 20 7 18 32 -6 10 -11 -6 9 -4 -2 11 17 12 2
10 3 5 6 15 10 5 13 20 8 12 17 10 22 22 7 -6 11 -2 5 6 13
17 17 6 5 7 11 11 7 15 19 11 10 13 6 23 7 6 5 13 -4 10 12
8 23 13 10 5 8 11 13 9 13 16 8 16 32 0 -5 -2 14 7 3 16 15
6 18 15 17 11 8 7 14 13 13 15 16 18 11 12 8 13 17 3 12 15 13
7 12 15 17 18 13 10 13 17 19 21 17 15 15 13 4 1 21 14 12 19 10
Height
3073 3077 3081 3085 3090 3093 3097 3102 3105 3107 3112 3115 3119 3122 3124 3126 3127 3130 3132 3133 3136 3137
3065 3070 3071 3075 3079 3084 3090 3094 3098 3100 3103 3107 3110 3114 3116 3118 3120 3122 3124 3126 3127 3128
3058 3060 3062 3068 3073 3077 3082 3084 3090 3093 3095 3098 3102 3103 3106 3109 3112 3113 3114 3117 3119 3119
3054 3057 3059 3062 3066 3070 3074 3077 3080 3084 3088 3089 3092 3093 3097 3101 3103 3104 3105 3107 3110 3110
3047 3051 3053 3057 3062 3063 3066 3068 3072 3076 3079 3081 3084 3085 3086 3091 3091 3093 3095 3098 3098 3101
3043 3046 3049 3052 3054 3056 3059 3061 3064 3067 3069 3072 3075 3078 3081 3083 3079 3080 3078 3083 3084 3086
3039 3041 3042 3044 3046 3048 3050 3052 3054 3057 3060 3063 3067 3070 3072 3074 3074 3076 3077 3077 3076 3078
3034 3035 3036 3038 3039 3040 3042 3044 3046 3047 3050 3053 3057 3060 3063 3066 3066 3068 3067 3065 3067 3068
3028 3029 3030 3031 3032 3033 3034 3036 3037 3038 3041 3045 3048 3052 3056 3054 3057 3057 3059 3059 3061 3062
3020 3022 3023 3023 3025 3026 3027 3027 3029 3030 3033 3035 3039 3043 3044 3048 3049 3050 3052 3054 3055 3055
3012 3012 3013 3014 3015 3016 3017 3018 3019 3021 3024 3026 3030 3032 3037 3038 3043 3044 3045 3047 3048 3049
3005 3004 3004 3005 3006 3007 3008 3010 3011 3013 3015 3018 3020 3023 3028 3031 3034 3037 3039 3040 3041 3043
2997 2997 2997 2997 2998 2999 3000 3002 3003 3005 3006 3009 3011 3015 3020 3023 3026 3029 3032 3033 3034 3037
2987 2988 2989 2989 2990 2992 2993 2994 2995 2997 2998 3001 3005 3008 3012 3014 3019 3022 3024 3026 3028 3031